Location: ??? ???
(33.2246°N, 35.7052°E)
Time: 02:44:04
(UTC+00:00)

Daily predictions for brighter satellites

Satellite Brightness Start Highest point End
(mag) Time Altitude Azimuth Time Altitude Azimuth Time Altitude Azimuth
ATLAS 2AS CENTAUR R/B 3.7 00:44:14 44° SE 00:45:36 47° ESE 00:53:14 10° NE
Cosmos 1844 Rocket 3.8 01:10:52 35° SE 01:10:52 35° SE 01:14:02 10° SSE
Aureole 1 Rocket 4.0 01:17:08 75° NNE 01:17:08 75° NNE 01:22:17 10° NNE
Milstar 3 Cent rocket 4.1 01:18:04 19° SSE 01:18:20 19° SSE 01:21:59 10° ESE
Cosmos 2333 Rocket 2.9 01:24:26 43° N 01:24:26 43° N 01:28:15 10° NNE
Meteor 1-22 Rocket 4.4 01:21:51 10° N 01:27:09 64° E 01:32:21 10° SSE
Centaur D-1AR AC-39 4.1 01:28:20 12° SSE 01:28:20 12° SSE 01:29:24 10° SE
ADEOS 4.3 01:25:01 10° N 01:28:30 43° N 01:28:30 43° N
Cosmos 1844 3.7 01:31:21 59° N 01:32:30 84° ENE 01:38:15 10° SSE
MSX 3.8 01:36:07 10° NNE 01:41:52 85° E 01:46:26 17° SSW
Cosmos 2184 Rocket 4.3 01:45:38 10° S 01:51:43 68° E 01:57:55 10° NNE
CZ-2C R/B 2.8 01:48:29 10° NNE 01:53:40 69° ESE 01:58:45 10° S
Cosmos 2219 Rocket 3.0 01:57:06 33° NW 01:57:06 33° NW 02:01:03 10° N
NOSS 3-4 (A) 3.3 01:53:19 33° SSW 01:56:10 88° NW 02:02:23 10° NNE
NOSS 3-4 (C) 3.3 01:53:17 32° SSW 01:56:15 89° NW 02:02:29 10° NNE
USA 234 3.3 01:51:28 10° SE 01:57:59 76° NE 02:03:27 16° NW
Cosmos 2237 Rocket 2.1 01:58:00 16° SSW 02:02:37 90° ESE 02:08:20 10° NNE
Cosmos 1758 4.1 02:01:31 10° N 02:05:25 51° E 02:09:20 10° SSE
Cosmos 389 Rocket 2.6 02:08:35 10° S 02:11:58 69° E 02:15:22 10° NNE
Delta 142 4.1 02:11:43 36° SW 02:12:39 41° S 02:16:32 10° ESE
COSMOS 2428 3.8 02:14:19 25° NW 02:14:19 25° NW 02:18:26 10° N
Cosmos 1140 Rocket 3.7 02:09:47 10° S 02:14:57 72° ESE 02:20:07 10° NNE
RESURS DK-1 4.2 02:11:42 10° S 02:15:21 31° ESE 02:19:02 10° NE
IDEFIX/ARIANE 42P 3.6 02:11:49 10° NNW 02:15:10 26° NW 02:15:10 26° NW
Cosmos 1980 3.7 02:15:05 17° SW 02:19:20 59° WNW 02:24:55 10° NNE
Cosmos 292 Rocket 4.1 02:16:18 10° NNW 02:21:05 69° ENE 02:25:51 10° SSE
GPS 2-05 Rocket1 3.0 02:21:52 39° S 02:21:52 39° S 02:24:10 10° SE
Cosmos 614 Rocket 3.9 02:17:12 10° SSW 02:22:21 62° WNW 02:27:32 10° N
PAYLOAD A 4.1 02:17:51 10° N 02:22:29 46° WNW 02:27:16 10° SW
Cosmos 1992 Rocket 4.4 02:20:41 18° NW 02:24:06 39° W 02:28:54 10° S
ATLAS 3B R/B 4.0 02:18:04 10° NNW 02:24:19 39° NE 02:30:42 10° ESE
CZ-4B R/B 3.8 02:21:10 10° N 02:25:06 63° WNW 02:29:14 10° SSW
Cosmos 2074 Rocket 4.0 02:20:03 10° SSW 02:26:10 59° W 02:32:20 10° N
Meteor 1-31 Rocket 2.7 02:24:04 10° N 02:27:47 54° WNW 02:31:29 10° SSW
NOSS 0 Rocket 4.2 02:24:53 19° SW 02:28:56 43° WNW 02:34:48 10° N
H-2A R/B 3.7 02:25:40 10° NNW 02:28:24 24° NW 02:28:24 24° NW
Meteor PRIRODA 3.5 02:27:15 10° N 02:31:00 84° W 02:34:43 10° SSW
Cosmos 1707 2.7 02:29:32 10° SSW 02:33:21 56° W 02:37:13 10° N
Cosmos 1470 2.7 02:32:18 10° NNW 02:36:10 60° W 02:39:58 10° S
ATLAS 2AS CENTAUR R/B 3.6 02:31:46 19° WSW 02:36:44 38° NW 02:44:07 10° NNE
CENTAUR R/B 3.8 02:30:09 10° NNW 02:38:19 60° ENE 02:46:54 10° SE
IUS-9 SRM-1 3.3 02:37:13 17° SSW 02:38:32 26° SSE 02:43:12 10° ESE
Cosmos 1726 Rocket 4.5 02:36:40 10° N 02:40:52 50° E 02:45:03 10° SSE
Milstar 3 3.8 02:35:44 10° SW 02:42:05 39° SSE 02:48:48 10° E
Okean O Rocket 2.9 02:38:30 10° NNE 02:42:42 44° E 02:46:51 10° S
Cosmos 1484 Rocket 2.6 02:41:21 10° N 02:45:09 86° WNW 02:49:00 10° SSW
USA 238 DEB 4.0 02:40:03 10° NW 02:47:07 54° WSW 02:54:19 10° S
USA 238 4.0 02:40:09 10° NW 02:47:13 54° WSW 02:54:25 10° S
Cosmos 2228 3.3 02:44:42 10° N 02:48:57 69° E 02:53:09 10° SSE
Cosmos 1844 Rocket 4.4 02:52:41 12° WSW 02:52:41 12° WSW 02:54:02 10° WSW
Cosmos 676 Rocket 4.0 02:48:58 10° SSW 02:54:11 60° WNW 02:59:25 10° N
SL-16 R/B 2.2 02:48:36 10° SSW 02:54:15 89° ESE 02:59:56 10° NNE
Cosmos 2058 Rocket 4.3 02:50:11 10° N 02:54:26 46° E 02:58:41 10° SSE
Cosmos 489 Rocket 4.5 02:51:10 10° NNW 02:57:18 62° WSW 03:03:27 10° S
Meteor 1-16 Rocket 4.3 02:53:47 10° N 02:59:07 77° E 03:04:30 10° SSE
Cosmos 921 Rocket 3.7 02:55:45 10° NW 02:59:30 31° W 03:03:12 10° SSW
SeaSat 1 3.3 03:00:19 10° NNE 03:05:10 55° ESE 03:09:58 10° S
SKYMED 2 3.5 03:02:26 10° S 03:06:46 80° W 03:11:07 10° NNW
Cosmos 1674 2.9 03:04:27 10° S 03:08:08 74° E 03:11:51 10° N
Meteor 2-5 Rocket 4.0 03:02:42 10° S 03:08:23 77° E 03:14:15 10° N
FENGYUN 3A 3.8 03:04:18 10° NNE 03:09:45 84° ESE 03:15:11 10° SSW
Cosmos 1726 2.5 03:07:49 10° N 03:11:28 68° E 03:15:06 10° SSE
Cosmos 2278 Rocket 2.5 03:06:31 10° NW 03:11:54 45° WSW 03:17:14 10° S
NOSS 3-2 (A) 4.5 03:06:01 10° NW 03:13:30 45° WSW 03:21:29 10° S
CZ-4B R/B 4.5 03:11:53 10° NNW 03:14:11 15° WNW 03:16:26 10° WSW
GP-B 3.4 03:12:19 10° SSW 03:16:34 46° W 03:20:50 10° NNW
Cosmos 1892 Rocket 4.0 03:12:32 10° SSW 03:16:44 41° W 03:20:56 10° N
Meteor 1-4 Rocket 3.9 03:16:52 10° WSW 03:19:21 18° WNW 03:21:49 10° NNW
